Location: Windermere Elementary School
(28.5078°N, 81.5446°W)
Time: 00:03:20
(UTC+00:00)

Daily predictions for brighter satellites

Satellite Brightness Start Highest point End
(mag) Time Altitude Azimuth Time Altitude Azimuth Time Altitude Azimuth
Cosmos 1980 Rocket 3.0 00:00:14 10° SSW 00:05:44 56° WNW 00:11:19 10° N
SL-8 R/B 4.1 00:03:46 10° NW 00:08:31 66° SW 00:13:15 10° SE
SJ-11-01 4.4 00:04:21 10° SSE 00:08:49 49° ENE 00:13:19 10° N
Cosmos 1302 Rocket 4.1 00:04:12 10° S 00:09:13 54° ESE 00:14:17 10° NNE
Cosmos 1633 Rocket 3.7 00:06:46 10° SSE 00:10:42 33° E 00:14:39 10° NNE
ERS-2 2.4 00:08:55 10° N 00:12:33 72° WNW 00:16:10 10° SSW
Cosmos 44 4.1 00:07:56 10° N 00:12:55 36° ENE 00:17:39 10° SE
Cosmos 2322 Rocket 2.9 00:10:42 10° SSE 00:15:27 29° ESE 00:20:13 10° NE
Cosmos 1707 Rocket 4.4 00:11:47 10° NNE 00:15:33 28° E 00:19:16 10° SE
Timation 1 Rocket 4.3 00:11:14 10° NNW 00:17:11 71° ENE 00:23:05 10° SSE
RESURS DK-1 3.2 00:13:18 10° NNW 00:17:19 53° WSW 00:21:20 10° S
CZ-2C R/B 3.6 00:18:12 10° SW 00:19:18 11° SW 00:20:24 10° SSW
SAR-Lupe-4 4.1 00:17:13 10° N 00:20:44 61° WNW 00:24:15 10° SSW
Atlas Centaur 2 3.2 00:18:58 10° W 00:25:08 41° SSW 00:29:57 10° SE
CZ-4 R/B 1.5 00:21:47 10° S 00:25:36 72° WSW 00:29:26 10° NNW
Centaur D-1AR AC-48 3.3 00:22:07 10° W 00:26:53 28° SSW 00:29:38 12° SE
Cosmos 2082 3.7 00:22:28 10° NNW 00:28:06 89° WSW 00:33:42 10° SSE
Meteor 1-20 Rocket 4.0 00:24:04 10° S 00:29:30 72° E 00:34:56 10° NNE
ERBS 2.8 00:26:48 10° SW 00:30:03 56° NW 00:32:35 15° NNE
Cosmos 1741 Rocket 4.1 00:24:51 10° NNW 00:30:11 83° WSW 00:35:27 10° SSE
SL-16 R/B 2.2 00:29:20 10° S 00:34:54 62° ESE 00:40:30 10° NNE
SL-24 R/B - RUBIN 2 4.3 00:32:00 10° NNW 00:37:20 64° WSW 00:41:59 10° SSE
Cosmos 1470 Rocket 3.8 00:38:41 10° SSE 00:42:56 44° E 00:47:11 10° NNE
HJ-1C 3.4 00:39:59 10° S 00:43:18 77° W 00:46:38 10° NNW
Delta 128 4.2 00:40:15 10° WSW 00:46:11 62° SSE 00:48:05 38° ESE
BREEZE-M DEB (TANK) 2.5 00:43:59 10° SW 00:46:56 76° WNW 00:46:56 76° WNW
Stardust Del rocket 4.1 00:46:06 10° SW 00:48:04 25° S 00:48:04 25° S
Abrixas rocket 4.4 00:48:55 10° WNW 00:50:13 13° NW 00:50:44 13° NNW
Cosmos 2327 Rocket 4.4 00:44:18 10° S 00:50:41 75° E 00:57:02 10° N
DMSP B5D2-2 4.0 00:48:38 10° NNE 00:53:53 90° ESE 00:59:05 10° SSW
Cosmos 1602 3.8 00:50:12 10° S 00:54:01 76° W 00:57:53 10° N
Cosmos 1271 Rocket 2.6 00:53:09 10° N 00:56:24 63° NNE 00:56:24 63° NNE
Cosmos 2154 Rocket 3.9 00:51:22 10° S 00:57:37 87° E 01:03:51 10° N
Cosmos 1461 4.3 00:54:00 10° SW 00:58:26 44° WNW 01:02:58 10° NNE
SL-08 RB Rocket 3.6 00:54:37 10° S 00:59:05 85° WSW 01:03:35 10° NNW
Cosmos 2263 Rocket 2.3 00:55:58 10° N 01:01:17 47° ENE 01:01:17 47° ENE
Meteor 1-14 Rocket 4.1 00:55:54 10° S 01:01:30 62° E 01:06:59 10° NNE
H-2A R/B 3.7 00:58:18 10° SSW 01:03:11 36° W 01:08:10 10° NNW
Yuri Rocket 3.8 00:59:04 10° W 01:06:33 81° S 01:07:57 54° ESE
ARGOS 4.0 01:02:15 10° S 01:07:29 51° W 01:12:45 10° NNW
Nadezhda 3 Rocket 3.9 01:01:32 10° N 01:07:49 62° E 01:12:31 19° SSE
MetOp-A 3.9 01:17:36 74° ENE 01:17:36 74° ENE 01:22:55 10° N
Delta 7925 Rocket 4.2 01:23:10 10° WSW 01:26:30 39° SSW 01:26:30 39° SSW
Meteor 1-18 Rocket 4.3 01:23:04 10° N 01:28:27 73° NNE 01:28:27 73° NNE
COSMOS 2455 3.1 01:24:52 10° NNW 01:30:49 64° WSW 01:32:50 41° S
SEDSat Delta rocket 4.3 01:28:08 10° W 01:31:24 36° WSW 01:31:24 36° WSW
Cosmos 2360 Rocket 2.7 01:28:20 10° SSW 01:32:13 47° SSW 01:32:13 47° SSW
Lacrosse 5 rocket 3.0 01:31:11 10° NW 01:33:43 32° WNW 01:33:43 32° WNW
Cosmos 2341 Rocket 4.0 01:36:23 10° S 01:42:44 79° W 01:49:04 10° N
Cosmos 2322 Rocket 4.0 01:54:40 10° WSW 01:59:21 27° WNW 02:03:06 14° NNW
ATLAS 2A CENTAUR R/B 4.1 01:56:34 10° W 02:29:14 60° SSW 02:29:34 60° SSW
Centaur D AC-29 3.7 08:58:33 23° ESE 08:58:33 23° ESE 09:00:05 10° ESE
Cosmos 1980 Rocket 4.4 09:02:29 12° NNE 09:06:11 22° ENE 09:10:26 10° ESE
Cosmos 1697 Rocket 4.0 09:33:14 30° SSE 09:33:14 30° SSE 09:35:59 10° SSE
Hubble Space Telescope 3.5 09:37:01 13° SE 09:37:01 13° SE 09:37:34 10° SE
Cosmos 1553 Rocket 4.2 09:33:23 10° S 09:39:44 69° E 09:46:03 10° NNE
Mugunghwa Rocket 3.9 09:40:06 75° SSE 09:40:06 75° SSE 09:46:06 10° E
Cosmos 2369 3.7 09:44:05 77° ENE 09:44:12 78° ENE 09:49:54 10° SSE
ALOS 4.3 09:41:23 10° NNE 09:42:44 19° NNE 09:42:44 19° NNE
H-2A R/B 3.8 09:45:03 39° WSW 09:53:48 88° NNW 09:59:41 10° ENE
Cosmos 2221 3.5 09:53:15 10° SSE 09:57:26 46° E 10:01:37 10° NNE
DELTA 4 R/B 3.3 10:01:11 27° SE 10:01:11 27° SE 10:02:17 10° ESE
Cosmos 292 Rocket 4.2 09:59:11 18° N 10:02:38 61° ENE 10:07:23 10° SSE
H-2A R/B 2.8 10:00:18 10° SSE 10:04:35 52° ENE 10:08:47 10° N
Cosmos 2344 3.6 09:57:37 10° SSW 10:05:42 75° ESE 10:13:07 10° NNE
ASTRO E2 3.2 10:06:29 57° ESE 10:06:29 57° ESE 10:09:54 10° E
SL-23 DEB 4.5 10:06:28 56° WNW 10:07:37 73° SW 10:11:52 10° SE
Meteosat 1 Rocket2 3.5 10:08:28 57° WSW 10:09:37 78° S 10:14:12 10° E
SJ-12 4.4 10:08:50 10° NNE 10:12:50 57° E 10:16:48 10° S
SL-27 R/B 3.7 10:12:51 15° SSE 10:15:22 39° ESE 10:18:40 10° NNE
CZ-4B R/B 4.3 10:13:12 10° ESE 10:15:29 18° ENE 10:17:44 10° NNE
SeaSat 1 2.5 10:10:40 10° SSE 10:15:34 77° ENE 10:20:30 10° NNW
Cosmos 2278 3.6 10:10:36 10° NNW 10:16:20 89° ENE 10:22:02 10° SSE
S3M 3.8 10:16:49 10° S 10:22:54 75° W 10:29:01 10° N
GMS 1 Rocket B 4.2 10:24:03 63° W 10:24:41 88° N 10:29:19 10° E
IUS-7 SRM-1 3.7 10:27:53 37° SW 10:28:59 47° S 10:39:51 10° ESE
DELTA 2 R/B (1) 3.9 10:29:31 36° WSW 10:31:02 45° SW 10:36:20 10° SE
Envisat 4.5 10:29:25 10° NNE 10:34:09 39° E 10:38:52 10° SSE
ATLAS CENTAUR R/B 4.1 10:33:23 10° NNE 10:36:19 18° ENE 10:39:22 10° ESE
Cosmos 1932 4.3 10:32:19 10° NNW 10:38:35 86° WSW 10:44:44 10° SSE
COSMO-SKYMED 1 3.1 10:36:52 10° SSE 10:41:08 60° ENE 10:45:23 10° N
Cosmos 1745 Rocket 3.9 10:35:22 10° N 10:41:38 82° W 10:47:58 10° S
Meteor 1-4 Rocket 2.5 10:39:51 10° SSW 10:43:33 63° W 10:47:14 10° N
Cosmos 1452 Rocket 4.3 10:44:07 26° W 10:45:00 28° W 10:49:26 10° SSW
CZ-4B R/B 3.1 10:43:12 10° NNE 10:47:39 88° WNW 10:52:10 10° SSW
Shi Jian 4 4.4 10:46:20 33° W 10:47:39 86° N 10:55:20 10° E
Milstar 3 Cent rocket 2.2 10:45:53 21° WSW 10:48:51 61° SSE 10:54:23 10° E
Cosmos 1980 Rocket 2.6 10:44:58 10° NW 10:50:13 39° WSW 10:55:25 10° S
Cosmos 1862 3.3 10:47:59 10° N 10:52:02 88° E 10:56:04 10° S
Cosmos 1709 Rocket 4.4 10:48:43 10° N 10:55:04 70° E 11:01:24 10° SSE
Cosmos 1606 2.7 10:51:25 10° S 10:55:16 89° E 10:59:09 10° N
Meteor 1-31 Rocket 3.7 10:52:13 10° NNW 10:55:29 26° WNW 10:57:18 18° WSW
IUS-12 SRM-1 3.5 10:54:50 22° WSW 10:56:35 49° S 11:02:32 10° ESE
Cosmos 1743 Rocket 3.7 10:54:05 10° N 10:58:35 83° E 11:03:02 10° S
Cosmos 2322 Rocket 3.5 10:54:38 10° N 11:00:00 43° ENE 11:05:21 10° SE
ADEOS 4.3 10:55:55 10° NNW 11:00:24 30° WNW 11:04:52 10° SW
Cosmos 1110 Rocket 4.2 10:56:29 10° NNW 11:01:29 46° W 11:06:27 10° S
Cosmos 1461 3.9 11:05:10 13° WNW 11:08:13 27° WSW 11:11:42 10° SSW
Hubble Space Telescope 3.1 11:13:52 10° SW 11:14:29 10° SSW 11:15:05 10° SSW
Cosmos 2315 Rocket 4.1 11:09:25 10° SSW 11:15:29 54° W 11:21:33 10° N
SL-16 R/B 2.3 11:14:21 10° NNW 11:20:03 89° ENE 11:25:42 10° SSE
Cosmos 1833 4.2 11:16:43 10° SSW 11:22:19 61° WNW 11:27:53 10° N
SMAP 4.0 11:20:19 10° NNE 11:24:53 54° E 11:29:25 10° S
SKYMED 2 4.3 11:25:18 10° SSW 11:29:09 32° W 11:33:02 10° NW
NOAA 6 4.0 11:27:47 10° N 11:32:57 82° WNW 11:38:04 10° SSW
H-2A R/B 4.0 11:31:03 10° NNW 11:34:07 22° WNW 11:37:11 10° SW
MOS 1 Rocket 4.0 11:31:13 10° SSW 11:34:50 27° W 11:38:28 10° NW
Mugunghwa Rocket 4.3 11:29:05 10° W 11:35:20 59° SSW 11:41:32 10° ESE
CZ-3 R/B 2.4 11:29:38 10° WSW 11:42:56 56° S 11:47:18 10° E
